CW0146 Weather Reports


Display with metric or nautical units.
time (UTC)temp
F
wind
direction
speed
MPH
gust
MPH
rain 1hr
in
rain 24hr
in
rain mn
in
humidity
%
barometer
mb
20260904135454 80 205 2.0 4.0 0.00 0.00 0.04 90 1015.0
20260904134954 80 259 1.0 2.0 0.00 0.00 0.04 90 1015.0
20260904134455 80 221 1.0 3.0 0.00 0.00 0.04 91 1015.0
20260904133955 80 214 2.0 4.0 0.00 0.00 0.04 91 1015.0
20260904133500 80 196 2.0 3.0 0.00 0.00 0.04 92 1015.0
20260904132954 79 180 0.0 1.0 0.00 0.00 0.04 92 1015.0
20260904132454 79 248 1.0 2.0 0.00 0.00 0.04 92 1015.0
20260904131955 79 167 1.0 2.0 0.00 0.00 0.05 93 1015.0
20260904131454 79 194 1.0 2.0 0.00 0.00 0.05 93 1015.0
20260904130954 79 215 2.0 4.0 0.00 0.00 0.05 93 1014.0
20260904130454 79 174 2.0 5.0 0.00 0.00 0.05 93 1014.0
20260904125955 79 175 0.0 2.0 0.00 0.00 0.05 92 1015.0
20260904125454 79 200 2.0 2.0 0.04 0.00 0.05 92 1014.0
20260904124954 79 182 2.0 3.0 0.01 0.00 0.04 92 1014.0
20260904124456 79 171 2.0 4.0 0.00 0.00 0.04 92 1015.0
20260904123954 79 187 0.0 2.0 0.00 0.00 0.04 92 1015.0
20260904123454 79 172 1.0 2.0 0.05 0.00 0.03 92 1015.0
20260904122954 79 176 0.0 2.0 0.05 0.00 0.03 91 1015.0
20260904122454 79 216 0.0 1.0 0.06 0.00 0.02 91 1015.0
20260904121954 79 318 0.0 1.0 0.05 0.00 0.02 91 1015.0
20260904121455 79 98 0.0 1.0 0.02 0.00 0.02 91 1014.0
20260904120954 79 165 0.0 1.0 0.00 0.00 0.02 90 1014.0
20260904120454 79 202 1.0 3.0 0.00 0.00 0.01 90 1014.0
20260904115955 79 108 2.0 3.0 0.01 0.00 0.01 89 1014.0
20260904115454 79 145 0.0 2.0 0.05 0.00 0.01 89 1014.0
20260904114954 79 122 0.0 2.0 0.07 0.00 0.00 89 1014.0
20260904114455 79 93 0.0 1.0 0.00 0.00 0.00 89 1014.0
20260904113954 79 90 0.0 1.0 0.00 0.00 0.00 89 1014.0
20260904113454 79 88 1.0 2.0 0.00 0.00 0.00 88 1014.0
20260904112954 79 101 1.0 2.0 0.00 0.00 0.00 88 1014.0
20260904112455 79 126 1.0 2.0 0.00 0.00 0.00 88 1014.0
20260904111954 79 82 0.0 1.0 0.00 0.00 0.00 88 1014.0
20260904111455 79 360 0.0 0.0 0.00 0.00 0.00 88 1014.0
20260904111002 79 112 0.0 2.0 0.00 0.00 0.00 88 1014.0
20260904110455 79 109 0.0 2.0 0.00 0.00 0.00 87 1014.0
20260904105956 79 98 1.0 2.0 0.00 0.00 0.00 87 1014.0
20260904105454 79 129 1.0 2.0 0.00 0.00 0.00 87 1014.0
20260904104954 79 160 1.0 2.0 0.00 0.00 0.00 87 1014.0
20260904104454 80 114 1.0 3.0 0.00 0.00 0.00 87 1014.0
20260904103955 80 114 1.0 2.0 0.00 0.00 0.00 87 1014.0
20260904103454 80 145 0.0 2.0 0.00 0.00 0.00 86 1014.0
20260904102954 80 155 1.0 3.0 0.00 0.00 0.00 86 1014.0
20260904102454 80 142 2.0 4.0 0.00 0.00 0.00 86 1014.0
20260904101954 80 89 2.0 3.0 0.00 0.00 0.00 86 1013.0
20260904101455 80 144 1.0 2.0 0.00 0.00 0.00 86 1013.0
20260904100955 80 197 0.0 2.0 0.00 0.00 0.00 86 1013.0
20260904100454 80 194 1.0 2.0 0.00 0.00 0.00 86 1013.0
20260904095954 80 97 1.0 2.0 0.00 0.00 0.00 85 1013.0
20260904095454 80 132 1.0 2.0 0.00 0.00 0.00 85 1013.0
20260904094954 80 134 0.0 2.0 0.00 0.00 0.00 85 1013.0
20260904094455 80 88 1.0 3.0 0.00 0.00 0.00 85 1013.0
20260904093954 80 84 1.0 2.0 0.00 0.00 0.00 85 1013.0
20260904093454 80 140 1.0 2.0 0.00 0.00 0.00 85 1013.0
20260904092954 80 158 2.0 3.0 0.00 0.00 0.00 85 1013.0
20260904092454 80 164 1.0 2.0 0.00 0.00 0.00 85 1013.0
20260904091954 81 167 2.0 4.0 0.00 0.00 0.00 85 1013.0
20260904091455 81 175 1.0 3.0 0.00 0.00 0.00 85 1013.0
20260904090955 81 160 1.0 2.0 0.00 0.00 0.00 85 1013.0
20260904090454 81 184 1.0 2.0 0.00 0.00 0.00 84 1013.0
20260904085954 81 177 1.0 2.0 0.00 0.00 0.00 84 1013.0
20260904085454 81 172 1.0 3.0 0.00 0.00 0.00 84 1013.0
20260904084954 81 195 2.0 5.0 0.00 0.00 0.00 84 1013.0
20260904084454 81 167 0.0 2.0 0.00 0.00 0.00 84 1013.0
20260904083954 81 168 1.0 4.0 0.00 0.00 0.00 84 1013.0
20260904083454 81 174 3.0 6.0 0.00 0.00 0.00 84 1013.0
20260904082954 81 157 1.0 4.0 0.00 0.00 0.00 84 1013.0
20260904082454 81 170 1.0 2.0 0.00 0.00 0.00 84 1013.0
20260904081955 81 183 4.0 5.0 0.00 0.00 0.00 84 1013.0
20260904081454 81 176 2.0 4.0 0.00 0.00 0.00 83 1013.0
20260904080954 81 187 2.0 4.0 0.00 0.00 0.00 83 1013.0
20260904080454 81 182 3.0 5.0 0.00 0.00 0.00 83 1013.0
20260904075954 81 184 4.0 6.0 0.00 0.00 0.00 83 1013.0
20260904075455 81 182 3.0 6.0 0.00 0.00 0.00 83 1013.0
20260904074954 81 160 2.0 4.0 0.00 0.00 0.00 83 1013.0
20260904074454 81 95 2.0 6.0 0.00 0.00 0.00 82 1013.0
20260904073954 81 175 4.0 7.0 0.00 0.00 0.00 82 1013.0
20260904073454 81 173 3.0 6.0 0.00 0.00 0.00 82 1013.0
20260904072954 81 191 3.0 6.0 0.00 0.00 0.00 82 1013.0
20260904072454 81 184 3.0 5.0 0.00 0.00 0.00 82 1013.0
20260904071955 81 190 1.0 2.0 0.00 0.00 0.00 82 1013.0
20260904071454 81 172 2.0 3.0 0.00 0.00 0.00 82 1013.0
20260904070954 81 176 2.0 6.0 0.00 0.00 0.00 82 1014.0
20260904070454 81 191 2.0 4.0 0.00 0.00 0.00 82 1014.0
20260904065954 81 183 4.0 9.0 0.00 0.00 0.00 82 1014.0
20260904065454 81 173 2.0 4.0 0.00 0.00 0.00 82 1014.0
20260904064954 81 186 2.0 4.0 0.00 0.00 0.00 82 1014.0
20260904064455 81 184 3.0 4.0 0.00 0.00 0.00 81 1014.0
20260904063956 81 198 2.0 5.0 0.00 0.00 0.00 81 1014.0
20260904063456 81 149 2.0 4.0 0.00 0.00 0.00 81 1014.0
20260904062954 81 167 1.0 3.0 0.00 0.00 0.00 81 1014.0
20260904062455 81 186 2.0 5.0 0.00 0.00 0.00 81 1014.0
20260904061955 81 121 1.0 2.0 0.00 0.00 0.00 81 1014.0
20260904061455 81 164 2.0 3.0 0.00 0.00 0.00 81 1014.0
20260904060954 81 143 1.0 3.0 0.00 0.00 0.00 81 1014.0
20260904060457 81 181 1.0 3.0 0.00 0.00 0.00 81 1014.0
20260904055954 81 166 1.0 3.0 0.00 0.00 0.00 81 1014.0
20260904055454 81 147 1.0 2.0 0.00 0.00 0.00 81 1014.0
20260904054957 81 165 2.0 3.0 0.00 0.00 0.00 81 1014.0
20260904054454 81 124 1.0 3.0 0.00 0.00 0.00 80 1014.0
20260904053956 81 129 2.0 4.0 0.00 0.00 0.00 80 1014.0
20260904053454 81 152 2.0 5.0 0.00 0.00 0.00 80 1014.0
20260904052954 81 166 2.0 5.0 0.00 0.00 0.00 80 1014.0
20260904052454 81 143 2.0 5.0 0.00 0.00 0.00 80 1013.0
20260904051955 81 155 2.0 3.0 0.00 0.00 0.00 80 1013.0
20260904051454 81 139 2.0 3.0 0.00 0.00 0.00 79 1013.0
20260904050954 81 157 2.0 3.0 0.00 0.00 0.00 79 1013.0
20260904050454 81 144 1.0 3.0 0.00 0.00 0.00 79 1013.0
20260904045954 81 98 2.0 6.0 0.00 0.00 0.00 79 1013.0
20260904045455 81 110 2.0 4.0 0.00 0.00 0.00 79 1013.0
20260904044954 81 126 2.0 4.0 0.00 0.00 0.00 79 1013.0
20260904044454 81 139 1.0 4.0 0.00 0.00 0.00 79 1013.0
20260904043954 81 112 1.0 2.0 0.00 0.00 0.00 79 1013.0
20260904043454 81 123 2.0 3.0 0.00 0.00 0.00 79 1013.0
20260904042954 81 170 2.0 3.0 0.00 0.00 0.00 79 1013.0
20260904042454 81 131 2.0 2.0 0.00 0.00 0.00 79 1013.0
20260904041955 81 105 2.0 4.0 0.00 0.00 0.00 79 1013.0
20260904041454 81 95 2.0 3.0 0.00 0.00 0.00 78 1013.0
20260904040954 81 116 2.0 4.0 0.00 0.00 0.00 78 1013.0
20260904040454 81 114 2.0 4.0 0.00 0.00 0.00 78 1013.0
20260904035954 81 98 1.0 2.0 0.00 0.00 0.00 78 1013.0
20260904035455 81 109 1.0 2.0 0.00 0.00 0.00 77 1013.0
20260904034954 81 125 1.0 2.0 0.00 0.00 0.00 77 1013.0
20260904034454 81 131 1.0 2.0 0.00 0.00 0.00 77 1013.0
20260904033954 81 102 2.0 4.0 0.00 0.00 0.00 76 1013.0
20260904033454 81 89 3.0 5.0 0.00 0.00 0.00 76 1013.0
20260904032954 82 127 2.0 3.0 0.00 0.00 0.00 75 1013.0
20260904032455 82 115 2.0 4.0 0.00 0.00 0.00 74 1013.0
20260904031954 82 78 1.0 2.0 0.00 0.00 0.00 74 1013.0
20260904031454 82 160 2.0 5.0 0.00 0.00 0.00 74 1013.0
20260904030955 82 121 2.0 3.0 0.00 0.00 0.00 73 1013.0
20260904030455 82 79 1.0 3.0 0.00 0.00 0.00 73 1013.0
20260904025955 82 129 1.0 3.0 0.00 0.00 0.00 72 1013.0
20260904025454 82 86 0.0 1.0 0.00 0.00 0.00 72 1013.0
20260904024954 82 102 1.0 2.0 0.00 0.00 0.00 72 1013.0
20260904024454 83 108 1.0 2.0 0.00 0.00 0.00 72 1013.0
20260904023954 83 176 1.0 2.0 0.00 0.00 0.00 71 1013.0
20260904023454 83 97 1.0 3.0 0.00 0.00 0.00 71 1013.0
20260904022954 83 135 2.0 4.0 0.00 0.00 0.00 71 1013.0
20260904022454 83 133 2.0 3.0 0.00 0.00 0.00 70 1013.0
20260904021954 83 160 0.0 1.0 0.00 0.00 0.00 70 1013.0
20260904021455 83 126 1.0 3.0 0.00 0.00 0.00 69 1013.0
20260904020955 83 125 1.0 3.0 0.00 0.00 0.00 69 1012.0
20260904020454 83 93 2.0 4.0 0.00 0.00 0.00 69 1012.0
20260904015954 83 113 1.0 3.0 0.00 0.00 0.00 68 1012.0
20260904015454 83 98 2.0 4.0 0.00 0.00 0.00 68 1012.0
20260904014954 84 127 2.0 3.0 0.00 0.00 0.00 67 1012.0
20260904014454 84 107 1.0 2.0 0.00 0.00 0.00 67 1012.0
20260904013954 84 79 1.0 3.0 0.00 0.00 0.00 67 1012.0
20260904013454 84 121 2.0 4.0 0.00 0.00 0.00 66 1012.0
20260904012954 84 112 1.0 2.0 0.00 0.00 0.00 66 1012.0
20260904012454 84 90 2.0 3.0 0.00 0.00 0.00 66 1012.0
20260904011955 84 81 2.0 4.0 0.00 0.00 0.00 66 1012.0
20260904011454 84 117 2.0 4.0 0.00 0.00 0.00 65 1012.0
20260904010954 84 128 1.0 2.0 0.00 0.00 0.00 65 1012.0
20260904010454 85 90 2.0 3.0 0.00 0.00 0.00 65 1012.0
20260904005954 85 85 0.0 2.0 0.00 0.00 0.00 65 1012.0
20260904005455 85 89 2.0 5.0 0.00 0.00 0.00 65 1012.0
20260904004955 85 107 3.0 6.0 0.00 0.00 0.00 64 1012.0
20260904004455 85 125 3.0 6.0 0.00 0.00 0.00 64 1012.0
20260904003955 85 99 2.0 4.0 0.00 0.00 0.00 64 1012.0
20260904003455 86 133 2.0 4.0 0.00 0.00 0.00 65 1012.0
20260904002954 86 119 2.0 4.0 0.00 0.00 0.00 64 1012.0
20260904002455 87 86 2.0 4.0 0.00 0.00 0.00 63 1012.0
20260904001954 87 106 1.0 3.0 0.00 0.00 0.00 63 1012.0
20260904001454 87 88 1.0 4.0 0.00 0.00 0.00 62 1012.0
20260904000954 88 137 2.0 4.0 0.00 0.00 0.00 62 1012.0
20260904000455 88 114 1.0 2.0 0.00 0.00 0.00 62 1012.0
20260903235955 88 100 2.0 4.0 0.00 0.00 0.00 61 1012.0
20260903235455 89 155 2.0 4.0 0.00 0.00 0.00 61 1012.0
20260903234954 89 80 3.0 6.0 0.00 0.00 0.00 61 1012.0
20260903234454 89 87 3.0 7.0 0.00 0.00 0.00 60 1012.0
20260903233954 89 91 3.0 5.0 0.00 0.00 0.00 60 1012.0
20260903233010 89 116 2.0 4.0 0.00 0.00 0.00 60 1011.0
20260903232454 89 132 2.0 4.0 0.00 0.00 0.00 61 1011.0
20260903231954 90 86 2.0 6.0 0.00 0.00 0.00 62 1011.0
20260903231454 90 86 3.0 5.0 0.00 0.00 0.00 61 1011.0
20260903230954 91 82 2.0 4.0 0.00 0.00 0.00 61 1011.0
20260903230454 91 106 2.0 5.0 0.00 0.00 0.00 60 1011.0
20260903225954 92 137 3.0 4.0 0.00 0.00 0.00 59 1011.0
20260903225454 92 94 3.0 7.0 0.00 0.00 0.00 58 1011.0
20260903224955 92 110 3.0 5.0 0.00 0.00 0.00 58 1011.0
20260903224454 92 103 4.0 6.0 0.00 0.00 0.00 60 1011.0
20260903223955 93 92 4.0 8.0 0.00 0.00 0.00 61 1011.0
20260903223454 93 97 3.0 5.0 0.00 0.00 0.00 59 1011.0
20260903222954 93 91 2.0 5.0 0.00 0.00 0.00 58 1011.0
20260903222457 92 74 4.0 7.0 0.00 0.00 0.00 58 1011.0
20260903221955 92 85 4.0 8.0 0.00 0.00 0.00 59 1011.0
20260903221454 92 84 4.0 7.0 0.00 0.00 0.00 60 1011.0
20260903220954 92 85 4.0 7.0 0.00 0.00 0.00 59 1011.0
20260903220454 93 98 3.0 6.0 0.00 0.00 0.00 59 1011.0
20260903215954 94 99 3.0 6.0 0.00 0.00 0.00 57 1011.0
20260903215454 93 111 2.0 3.0 0.00 0.00 0.00 57 1011.0
20260903214954 93 87 2.0 5.0 0.00 0.00 0.00 58 1011.0
20260903214454 94 90 3.0 5.0 0.00 0.00 0.00 55 1011.0
20260903213954 94 108 2.0 4.0 0.00 0.00 0.00 53 1011.0
20260903213454 94 96 2.0 6.0 0.00 0.00 0.00 53 1011.0
20260903212954 94 119 2.0 4.0 0.00 0.00 0.00 54 1011.0
20260903212454 94 126 2.0 3.0 0.00 0.00 0.00 54 1011.0
20260903211954 94 88 3.0 5.0 0.00 0.00 0.00 54 1011.0
20260903211454 94 106 2.0 4.0 0.00 0.00 0.00 54 1011.0
20260903210954 94 131 2.0 3.0 0.00 0.00 0.00 53 1011.0
20260903210454 94 129 2.0 4.0 0.00 0.00 0.00 54 1011.0
20260903205954 95 76 3.0 4.0 0.00 0.00 0.00 52 1011.0
20260903205454 95 87 3.0 7.0 0.00 0.00 0.00 51 1011.0
20260903204955 95 84 2.0 4.0 0.00 0.00 0.00 51 1011.0
20260903204454 95 101 2.0 3.0 0.00 0.00 0.00 51 1011.0
20260903203954 95 111 1.0 4.0 0.00 0.00 0.00 51 1011.0
20260903203455 95 120 2.0 3.0 0.00 0.00 0.00 52 1012.0
20260903202954 96 90 3.0 6.0 0.00 0.00 0.00 52 1012.0
20260903202457 96 75 2.0 4.0 0.00 0.00 0.00 52 1012.0
20260903201954 96 78 2.0 4.0 0.00 0.00 0.00 51 1012.0
20260903201455 96 125 2.0 3.0 0.00 0.00 0.00 50 1012.0
20260903200954 96 87 3.0 6.0 0.00 0.00 0.00 49 1012.0
20260903200454 96 169 2.0 4.0 0.00 0.00 0.00 50 1012.0
20260903195954 96 134 2.0 3.0 0.00 0.00 0.00 51 1012.0
20260903195455 96 182 2.0 3.0 0.00 0.00 0.00 51 1012.0
20260903194955 96 147 2.0 3.0 0.00 0.00 0.00 51 1012.0
20260903194454 97 84 2.0 4.0 0.00 0.00 0.00 50 1012.0
20260903193954 97 76 3.0 6.0 0.00 0.00 0.00 49 1012.0
20260903193454 97 138 2.0 3.0 0.00 0.00 0.00 49 1012.0
20260903192955 96 106 2.0 4.0 0.00 0.00 0.00 50 1012.0
20260903192455 95 107 1.0 4.0 0.00 0.00 0.00 51 1012.0
20260903191954 95 91 1.0 2.0 0.00 0.00 0.00 52 1012.0
20260903191454 94 129 1.0 3.0 0.00 0.00 0.00 52 1012.0
20260903190955 94 95 1.0 2.0 0.00 0.00 0.00 51 1012.0
20260903190454 94 81 3.0 4.0 0.00 0.00 0.00 52 1012.0
20260903185955 94 118 2.0 3.0 0.00 0.00 0.00 51 1013.0
20260903185455 95 111 2.0 3.0 0.00 0.00 0.00 51 1013.0
20260903184955 95 86 2.0 5.0 0.00 0.00 0.00 51 1013.0
20260903184455 95 178 2.0 4.0 0.00 0.00 0.00 51 1013.0
20260903183954 95 136 2.0 4.0 0.00 0.00 0.00 52 1013.0
20260903183455 96 80 2.0 2.0 0.00 0.00 0.00 51 1013.0
20260903182955 97 90 2.0 5.0 0.00 0.00 0.00 49 1013.0
20260903182455 97 179 3.0 4.0 0.00 0.00 0.00 49 1013.0
20260903181956 97 149 2.0 4.0 0.00 0.00 0.00 50 1013.0
20260903181454 96 140 2.0 3.0 0.00 0.00 0.00 48 1013.0
20260903180955 96 139 2.0 4.0 0.00 0.00 0.00 49 1013.0
20260903180456 95 170 2.0 5.0 0.00 0.00 0.00 49 1013.0
20260903175954 94 115 1.0 2.0 0.00 0.00 0.00 52 1013.0
20260903175454 94 183 3.0 6.0 0.00 0.00 0.00 52 1013.0
20260903174955 93 173 1.0 3.0 0.00 0.00 0.00 53 1014.0
20260903174454 92 184 4.0 6.0 0.00 0.00 0.00 54 1014.0
20260903173954 92 174 2.0 5.0 0.00 0.00 0.00 58 1014.0
20260903173455 92 110 1.0 2.0 0.00 0.00 0.00 57 1014.0
20260903172507 92 110 2.0 3.0 0.00 0.00 0.00 57 1014.0
20260903171955 92 192 1.0 2.0 0.00 0.00 0.00 58 1014.0
20260903171454 92 178 3.0 5.0 0.00 0.00 0.00 58 1014.0
20260903170954 92 160 2.0 5.0 0.00 0.00 0.00 58 1014.0
20260903170455 91 147 2.0 3.0 0.00 0.00 0.00 59 1014.0
20260903165955 91 167 2.0 5.0 0.00 0.00 0.00 59 1014.0
20260903165455 90 193 2.0 5.0 0.00 0.00 0.00 59 1014.0
20260903164955 90 169 3.0 4.0 0.00 0.00 0.00 59 1014.0
20260903164455 90 171 5.0 8.0 0.00 0.00 0.00 59 1014.0
20260903163956 90 168 3.0 5.0 0.00 0.00 0.00 61 1014.0
20260903163454 90 161 2.0 5.0 0.00 0.00 0.00 61 1014.0
20260903162955 90 193 3.0 4.0 0.00 0.00 0.00 62 1014.0
20260903162454 89 168 4.0 6.0 0.00 0.00 0.00 62 1014.0
20260903161954 89 176 3.0 6.0 0.00 0.00 0.00 62 1014.0
20260903161454 89 185 5.0 7.0 0.00 0.00 0.00 62 1014.0
20260903160955 89 171 3.0 5.0 0.00 0.00 0.00 62 1014.0
20260903160454 89 177 4.0 9.0 0.00 0.00 0.00 62 1014.0
20260903155954 89 180 4.0 7.0 0.00 0.00 0.00 62 1014.0
20260903155454 89 174 4.0 7.0 0.00 0.00 0.00 62 1014.0
20260903154954 88 206 2.0 6.0 0.00 0.00 0.00 65 1014.0
20260903154454 87 195 2.0 4.0 0.00 0.00 0.00 66 1014.0
20260903153954 87 165 3.0 6.0 0.00 0.00 0.00 66 1014.0
20260903153454 87 164 6.0 10.0 0.00 0.00 0.00 67 1014.0
20260903152954 87 178 4.0 6.0 0.00 0.00 0.00 67 1014.0
20260903152454 87 182 4.0 7.0 0.00 0.00 0.00 68 1014.0
20260903151955 86 170 2.0 6.0 0.00 0.00 0.00 68 1014.0
20260903151454 86 173 4.0 9.0 0.00 0.00 0.00 68 1014.0
20260903150954 86 177 5.0 9.0 0.00 0.00 0.00 68 1014.0
20260903150455 86 176 5.0 9.0 0.00 0.00 0.00 68 1014.0
20260903145958 85 184 4.0 9.0 0.00 0.00 0.00 70 1014.0
20260903145454 85 182 3.0 6.0 0.00 0.00 0.00 70 1014.0
20260903144954 85 176 3.0 6.0 0.00 0.00 0.00 71 1014.0
20260903144454 84 178 4.0 6.0 0.00 0.00 0.00 74 1014.0
20260903143954 84 174 3.0 7.0 0.00 0.00 0.00 74 1014.0
20260903143456 84 163 4.0 7.0 0.00 0.00 0.00 74 1014.0
20260903142954 84 185 3.0 6.0 0.00 0.00 0.00 75 1014.0
20260903142455 84 173 4.0 7.0 0.00 0.00 0.00 75 1014.0
20260903141954 84 178 5.0 10.0 0.00 0.00 0.00 74 1014.0
20260903141454 84 182 4.0 8.0 0.00 0.00 0.00 75 1014.0
20260903140955 83 165 4.0 7.0 0.00 0.00 0.00 76 1014.0
20260903140454 83 191 4.0 6.0 0.00 0.00 0.00 77 1014.0
20260903135954 83 203 2.0 4.0 0.00 0.00 0.00 78 1014.0